| time (UTC) | temp F | wind direction | speed knots | gust knots | rain 1hr in | rain 24hr in | rain mn in | humidity % | barometer mb |
| 20260504050007 | 63 | 345 | 10.4 | 20.0 | 0.00 | 0.04 | 0.00 | 55 | 1009.4 |
| 20260504044512 | 64 | 309 | 7.8 | 19.1 | 0.00 | 0.04 | 0.00 | 54 | 1009.5 |
| 20260504043011 | 64 | 298 | 6.1 | 18.2 | 0.00 | 0.04 | 0.00 | 54 | 1009.4 |
| 20260504041508 | 64 | 333 | 12.2 | 24.3 | 0.00 | 0.04 | 0.00 | 53 | 1009.6 |
| 20260504040002 | 64 | 5 | 8.7 | 19.1 | 0.00 | 0.04 | 0.00 | 54 | 1009.8 |
| 20260504034501 | 63 | 338 | 7.8 | 18.2 | 0.00 | 0.04 | 0.00 | 54 | 1009.7 |
| 20260504033100 | 63 | 346 | 7.0 | 19.1 | 0.00 | 0.04 | 0.00 | 54 | 1010.0 |
| 20260504031559 | 64 | 5 | 12.2 | 22.6 | 0.00 | 0.04 | 0.00 | 53 | 1010.0 |
| 20260504030056 | 63 | 342 | 5.2 | 21.7 | 0.00 | 0.04 | 0.00 | 56 | 1010.2 |
| 20260504024555 | 63 | 306 | 9.6 | 21.7 | 0.00 | 0.04 | 0.00 | 56 | 1010.4 |
| 20260504023052 | 63 | 18 | 7.8 | 25.2 | 0.00 | 0.04 | 0.00 | 56 | 1010.4 |
| 20260504021553 | 63 | 302 | 7.0 | 21.7 | 0.00 | 0.04 | 0.00 | 56 | 1010.7 |
| 20260504020056 | 62 | 325 | 4.3 | 19.1 | 0.00 | 0.04 | 0.00 | 60 | 1010.8 |
| 20260504014547 | 62 | 340 | 3.5 | 13.0 | 0.00 | 0.20 | 0.00 | 61 | 1011.0 |
| 20260504013101 | 62 | 5 | 4.3 | 17.4 | 0.00 | 0.20 | 0.00 | 61 | 1011.1 |
| 20260504011543 | 63 | 346 | 7.8 | 19.1 | 0.00 | 0.20 | 0.00 | 60 | 1011.2 |
| 20260504010042 | 62 | 319 | 7.0 | 20.0 | 0.00 | 0.20 | 0.00 | 62 | 1011.3 |
| 20260504004539 | 62 | 30 | 3.5 | 15.6 | 0.00 | 0.39 | 0.00 | 63 | 1011.4 |
| 20260504003036 | 61 | 355 | 7.0 | 20.0 | 0.00 | 0.39 | 0.00 | 63 | 1011.3 |
| 20260504001537 | 61 | 355 | 9.6 | 18.2 | 0.00 | 0.39 | 0.00 | 63 | 1011.3 |
| 20260504000030 | 61 | 355 | 4.3 | 17.4 | 0.00 | 0.39 | 0.00 | 65 | 1011.4 |
| 20260503234626 | 61 | 336 | 6.1 | 14.8 | 0.00 | 0.42 | 0.00 | 66 | 1011.5 |
| 20260503233021 | 60 | 314 | 8.7 | 15.6 | 0.00 | 0.42 | 0.00 | 66 | 1011.5 |
| 20260503231517 | 59 | 336 | 6.1 | 15.6 | 0.00 | 0.42 | 0.00 | 68 | 1011.5 |
| 20260503230033 | 59 | 24 | 7.8 | 16.5 | 0.00 | 0.42 | 0.00 | 69 | 1011.8 |
| 20260503224509 | 58 | 336 | 4.3 | 13.9 | 0.00 | 0.42 | 0.00 | 72 | 1011.8 |
| 20260503223004 | 57 | 345 | 3.5 | 8.7 | 0.00 | 0.42 | 0.00 | 75 | 1011.9 |
| 20260503221609 | 56 | 347 | 1.7 | 9.6 | 0.00 | 0.42 | 0.00 | 77 | 1012.0 |
| 20260503220055 | 55 | 355 | 4.3 | 9.6 | 0.00 | 0.42 | 0.00 | 78 | 1012.0 |
| 20260503214552 | 55 | 346 | 2.6 | 10.4 | 0.00 | 0.42 | 0.00 | 79 | 1011.9 |
| 20260503213050 | 55 | 338 | 4.3 | 11.3 | 0.00 | 0.42 | 0.00 | 79 | 1011.8 |
| 20260503211550 | 55 | 360 | 0.9 | 9.6 | 0.00 | 0.42 | 0.00 | 79 | 1011.8 |
| 20260503210046 | 55 | 69 | 2.6 | 7.0 | 0.00 | 0.42 | 0.00 | 80 | 1011.9 |
| 20260503204558 | 55 | 321 | 0.9 | 7.8 | 0.00 | 0.42 | 0.00 | 80 | 1011.8 |
| 20260503203045 | 55 | 355 | 0.0 | 11.3 | 0.00 | 0.42 | 0.00 | 80 | 1011.5 |
| 20260503201540 | 55 | 348 | 0.9 | 8.7 | 0.00 | 0.42 | 0.00 | 80 | 1011.3 |
| 20260503200038 | 55 | 355 | 1.7 | 9.6 | 0.00 | 0.42 | 0.00 | 80 | 1011.4 |
| 20260503194541 | 55 | 338 | 1.7 | 7.8 | 0.00 | 0.42 | 0.00 | 79 | 1011.4 |
| 20260503193044 | 55 | 329 | 0.0 | 7.8 | 0.00 | 0.42 | 0.00 | 79 | 1011.7 |
| 20260503191559 | 55 | 31 | 1.7 | 8.7 | 0.00 | 0.42 | 0.00 | 80 | 1011.8 |
| 20260503190033 | 55 | 349 | 0.0 | 9.6 | 0.00 | 0.42 | 0.00 | 79 | 1011.8 |
| 20260503184526 | 55 | 346 | 1.7 | 11.3 | 0.00 | 0.42 | 0.00 | 80 | 1011.8 |
| 20260503183024 | 55 | 15 | 1.7 | 10.4 | 0.00 | 0.42 | 0.00 | 80 | 1011.9 |
| 20260503181522 | 55 | 323 | 1.7 | 11.3 | 0.00 | 0.42 | 0.00 | 82 | 1012.0 |
| 20260503180025 | 55 | 338 | 1.7 | 7.8 | 0.00 | 0.42 | 0.00 | 83 | 1012.2 |
| 20260503174516 | 55 | 316 | 1.7 | 8.7 | 0.00 | 0.42 | 0.00 | 83 | 1012.2 |
| 20260503173015 | 55 | 28 | 1.7 | 7.8 | 0.00 | 0.42 | 0.00 | 83 | 1012.3 |
| 20260503171514 | 55 | 360 | 2.6 | 7.8 | 0.00 | 0.42 | 0.00 | 84 | 1012.4 |
| 20260503081532 | 58 | 351 | 0.0 | 0.9 | 0.00 | 0.42 | 0.42 | 77 | 1011.5 |
| 20260503071514 | 62 | 325 | 0.0 | 4.3 | 0.00 | 0.42 | 0.42 | 76 | 1011.2 |
| 20260503054510 | 61 | 5 | 1.7 | 8.7 | 0.03 | 0.42 | 0.42 | 86 | 1010.8 |
| 20260503053010 | 61 | 335 | 0.0 | 5.2 | 0.03 | 0.41 | 0.41 | 85 | 1011.0 |